STARLINK-33852 (63644 NORAD) Tracking and Keplerian Element Data

This shows tracking and keplerian element data for the satellite.

Feedback or suggestion? Click here.




ElementValue
Catalog63644
NameSTARLINK-33852
Epoch Orbit3790
Epoch Day353.98111584
Epoch Year2025
RAAN95.6055
Inclination42.9993
Eccentricity0.000134
Argument of Perigee49.6934
Mean Anonmoly310.4035
Mean Motion15.2758123
Decay Rate0.00021436
L11 63644U 25083L 25353.98111584 .00021436 00000+0 78620-3 0 9997
L22 63644 42.9993 95.6055 0001340 49.6934 310.4035 15.27581230 37903



Live tracking and technical data element details for STARLINK-33852 (NORAD 63644). STARLINK-33852 can be tracked NOW for your location showing map with azimuth and elevation plus other details from your city location.







IsCatalogInMostPopularTable: catalog: 63644, numindb: 2
Update: records affected: 1



GetName: 63644 STARLINK-33852

Hit Count: updated at: Sat, 07 Feb 2026 08:48:35 GMT